La Junta, CO

8:02 PM MST on December 05, 2016 (GMT -0700)
La Junta Municipal

Weather History for KLHX - December, 2013

Change the Weather History Date:

Sunday, December 29, 2013

  Actual Average Record
Temperature  
Mean Temperature 22 °F 30 °F  
Max Temperature 31 °F 44 °F 67 °F (1945)
Min Temperature 12 °F 17 °F -19 °F (1983)
Degree Days  
Heating Degree Days 43 35  
Month to date heating degree days 979 989  
Since 1 July heating degree days 2017 2134  
Cooling Degree Days 0 0  
Month to date cooling degree days 0 0  
Year to date cooling degree days 1663 1226  
Moisture  
Dew Point 17 °F    
Average Humidity 75    
Maximum Humidity 92    
Minimum Humidity 58    
Precipitation  
Precipitation 0.05 in 0.01 in 0.33 in (1990)
Month to date precipitation 0.05 0.26  
Year to date precipitation 5.08 11.46  
Sea Level Pressure  
Sea Level Pressure 30.24 in    
Wind  
Wind Speed 6 mph (East)    
Max Wind Speed 17 mph    
Max Gust Speed 22 mph    
Visibility 6 miles    
Events Snow    
T = Trace of Precipitation, MM = Missing Value Source: NWS Daily Summary

Daily Weather History Graph

Daily Weather History Graph

Search for Another Location

Airport or City:

Trip Planner

Search our weather history database for the weather conditions in past years. The results will help you decide how hot, cold, wet, or windy it might be!

Date:

Astronomy

Dec. 29, 2013 Rise Set
Actual Time 7:09 AM MST 4:43 PM MST
Civil Twilight 6:40 AM MST 5:12 PM MST
Nautical Twilight 6:07 AM MST 5:45 PM MST
Astronomical Twilight 5:35 AM MST 6:17 PM MST
Moon 3:57 AM MST (12/29) 2:21 PM MST (12/29)
Length of Visible Light 10h 32m
Length of Day
9h 33m
Waning Crescent, 10% of the Moon is Illuminated
Dec 29
Waning Crescent
Jan 1
New
Jan 7
First Quarter
Jan 15
Full
Jan 23
Last Quarter

Hourly Weather History & Observations

Time (MST) Temp. Windchill Dew Point Humidity Pressure Visibility Wind Dir Wind Speed Gust Speed Precip Events Conditions
12:53 AM 30.0 °F 18.3 °F 17.1 °F 59% 30.14 in 10.0 mi NNE 17.3 mph - N/A   Overcast
1:53 AM 28.0 °F 16.5 °F 17.1 °F 63% 30.17 in 10.0 mi NNE 15.0 mph - N/A   Overcast
2:53 AM 27.0 °F 18.0 °F 18.0 °F 69% 30.19 in 10.0 mi NNE 9.2 mph - 0.00 in   Overcast
3:17 AM 25.0 °F 14.8 °F 19.0 °F 78% 30.21 in 2.5 mi NE 10.4 mph - 0.00 in Snow Light Snow
3:25 AM 25.0 °F 14.8 °F 19.9 °F 81% 30.21 in 1.8 mi NNE 10.4 mph - 0.00 in Snow Light Snow
3:53 AM 24.1 °F 14.4 °F 19.9 °F 84% 30.22 in 1.2 mi NE 9.2 mph - 0.00 in Snow Light Snow
4:04 AM 23.0 °F 12.4 °F 21.0 °F 92% 30.22 in 1.0 mi NE 10.4 mph - 0.00 in Snow Light Snow
4:20 AM 23.0 °F 13.9 °F 19.9 °F 88% 30.23 in 1.2 mi NE 8.1 mph - 0.01 in Snow Light Snow
4:49 AM 21.2 °F 12.6 °F 19.4 °F 93% 30.23 in 1.0 mi NE 6.9 mph - 0.02 in Snow Light Snow
4:53 AM 21.9 °F 13.4 °F 19.9 °F 92% 30.25 in 1.2 mi NE 6.9 mph - 0.02 in Snow Light Snow
5:53 AM 21.9 °F 15.7 °F 19.0 °F 89% 30.28 in 1.5 mi NE 4.6 mph - 0.01 in Snow Light Snow
6:18 AM 21.9 °F 17.2 °F 19.9 °F 92% 30.26 in 2.0 mi East 3.5 mph - 0.01 in Snow Light Snow
6:28 AM 21.9 °F 15.7 °F 19.0 °F 89% 30.26 in 2.5 mi East 4.6 mph - 0.01 in Snow Light Snow
6:53 AM 21.9 °F 15.7 °F 19.0 °F 89% 30.31 in 2.5 mi East 4.6 mph - 0.01 in Snow Light Snow
7:25 AM 21.9 °F 15.7 °F 19.0 °F 89% 30.28 in 1.2 mi ESE 4.6 mph - 0.01 in Snow Light Snow
7:53 AM 21.0 °F 13.4 °F 19.0 °F 92% 30.34 in 1.8 mi East 5.8 mph - 0.01 in Snow Light Snow
8:04 AM 21.0 °F 12.4 °F 19.0 °F 92% 30.29 in 2.5 mi East 6.9 mph - 0.00 in Snow Light Snow
8:14 AM 21.0 °F 14.6 °F 19.0 °F 92% 30.29 in 4.0 mi East 4.6 mph - 0.00 in Snow Light Snow
8:43 AM 21.9 °F 14.5 °F 18.0 °F 85% 30.30 in 9.0 mi ENE 5.8 mph - 0.00 in Snow Light Snow
8:53 AM 21.9 °F 14.5 °F 18.0 °F 85% 30.36 in 9.0 mi East 5.8 mph - 0.00 in Snow Light Snow
9:12 AM 21.0 °F 13.4 °F 18.0 °F 88% 30.31 in 9.0 mi SE 5.8 mph - 0.00 in Snow Light Snow
9:53 AM 21.9 °F 17.2 °F 18.0 °F 85% 30.38 in 9.0 mi SSE 3.5 mph - 0.00 in Snow Light Snow
10:53 AM 21.9 °F 14.5 °F 17.1 °F 82% 30.36 in 9.0 mi SSW 5.8 mph - 0.00 in Snow Light Snow
11:53 AM 24.1 °F 19.7 °F 18.0 °F 77% 30.32 in 9.0 mi SW 3.5 mph - 0.00 in Snow Light Snow
12:53 PM 25.0 °F 18.1 °F 17.1 °F 72% 30.27 in 9.0 mi WSW 5.8 mph - 0.00 in Snow Light Snow
1:53 PM 26.1 °F 18.4 °F 18.0 °F 71% 30.25 in 9.0 mi SW 6.9 mph - 0.00 in Snow Light Snow
2:53 PM 27.0 °F 20.5 °F 18.0 °F 69% 30.25 in 9.0 mi WSW 5.8 mph - 0.00 in Snow Light Snow
3:53 PM 27.0 °F 21.6 °F 18.0 °F 69% 30.25 in 9.0 mi SW 4.6 mph - 0.00 in Snow Light Snow
4:53 PM 25.0 °F 16.3 °F 16.0 °F 69% 30.22 in 9.0 mi South 8.1 mph - 0.00 in Snow Light Snow
5:53 PM 24.1 °F 19.7 °F 15.1 °F 69% 30.22 in 9.0 mi South 3.5 mph - 0.00 in Snow Light Snow
6:53 PM 23.0 °F 15.8 °F 14.0 °F 68% 30.21 in 10.0 mi South 5.8 mph - 0.00 in   Clear
7:53 PM 21.0 °F 14.6 °F 14.0 °F 74% 30.20 in 10.0 mi SSE 4.6 mph - 0.00 in   Clear
8:53 PM 19.9 °F 14.9 °F 12.9 °F 74% 30.15 in 10.0 mi South 3.5 mph - N/A   Clear
9:53 PM 15.1 °F 9.4 °F 10.9 °F 84% 30.13 in 9.0 mi North 3.5 mph - 0.00 in Snow Light Snow
10:53 PM 12.0 °F - 10.0 °F 92% 30.10 in 9.0 mi Calm Calm - 0.00 in Snow Light Snow
11:53 PM 10.9 °F -1.8 °F 9.0 °F 92% 30.10 in 9.0 mi NW 9.2 mph - 0.00 in Snow Light Snow